Regional Weather Roundup
Issued by NWS Sterling, VA

Home | Current Version | Previous Version | Text Only | Print | Product List | Glossary On
Versions: 1 2 3 4 5 6 7 8 9 10 11 12 13 14 15 16 17 18 19 20 21 22 23 24 25 26 27 28 29 30 31 32 33 34 35 36 37 38 39 40 41 42 43 44 45 46 47 48 49 50
000
ASUS41 KLWX 070810
RWRLWX

REGIONAL WEATHER ROUNDUP
NATIONAL WEATHER SERVICE BALTIMORE MD/WASHINGTON DC
400 AM EDT THU MAY 07 2015

Note: "FAIR" indicates few or no clouds below 12,000 feet
with no significant weather and/or obstructions to visibility.
 TC=TEMPERATURE CELSIUS

 * =Non NWS site. Station does not report precipitation (e.g. rain,
    snow, etc.), thunder, or fog.

DCZ001-MDZ009-015-VAZ040>042-051-053>054-070900-
WASHINGTON METRO

CITY           SKY/WX    TMP DP  RH WIND       PRES   REMARKS
WASHINGTON NAT PTCLDY    64  54  69 NE7       30.18F
DULLES         PTCLDY    60  55  83 N6        30.18S
ANDREWS AFB    MOCLDY    58  55  88 NE5       30.17S
QUANTICO       PTCLDY    62  57  83 E8        30.18S
COLLEGE PARK*  PTCLDY    59  54  82 CALM      30.18S
LEESBURG*      PTCLDY    61  61 100 NE3       30.20S
MANASSAS*      PTCLDY    59  57  94 CALM      30.17S
GAITHERSBURG*  CLEAR     57  52  82 CALM      30.23S

$$

MDZ006>007-011-014-070900-
BALTIMORE METRO

CITY           SKY/WX    TMP DP  RH WIND       PRES   REMARKS
BWI AIRPORT    PTCLDY    59  52  77 E6        30.18S
MD SCIENCE CTR   N/A     63  53  70 MISG      30.19S
MARTIN STATE   PTCLDY    61  55  82 CALM      30.20S
ANNAPOLIS      PTCLDY    60  52  74 E5        30.18S
FORT MEADE*    PTCLDY    54  52  94 CALM      30.21S

$$

MDZ012-015-019>023-070900-
MARYLAND EASTERN SHORE

CITY           SKY/WX    TMP DP  RH WIND       PRES   REMARKS
OCEAN CITY     PTCLDY    53  51  93 NE6       30.19S
SALISBURY      PTCLDY    53  51  93 CALM      30.18S
BAY BRIDGE AP*   N/A    N/A N/A N/A E3        30.19R
CAMBRIDGE*     PTCLDY    55  52  88 E3        30.17F
EASTON*        PTCLDY    57  54  90 E5        30.22R

$$

MDZ017>025-070900-
SOUTHERN MARYLAND

CITY           SKY/WX    TMP DP  RH WIND       PRES   REMARKS
PATUXENT RIVER PTCLDY    60  57  89 SE9       30.16F
ST INIGOES     PTCLDY    59  57  93 E6        30.16S
LEONARDTOWN*   PTCLDY    59  54  82 CALM      30.18R

$$

MDZ003>005-070900-
NORTH CENTRAL MARYLAND

CITY           SKY/WX    TMP DP  RH WIND       PRES   REMARKS
FREDERICK*     NOT AVBL
HAGERSTOWN APT CLOUDY    57  53  86 N5        30.19S FOG
WESTMINSTER*   CLEAR     59  54  82 CALM      30.20S

$$

MDZ501>502-070900-
WESTERN MARYLAND

CITY           SKY/WX    TMP DP  RH WIND       PRES   REMARKS
OAKLAND*       CLEAR     57 N/A N/A S8        30.21F
CUMBERLAND*    CLOUDY    61  61 100 CALM      30.22S VSB 1/4

$$

VAZ025>031-070900-
SHENANDOAH VALLEY

CITY           SKY/WX    TMP DP  RH WIND       PRES   REMARKS
WINCHESTER*    CLOUDY    61  55  82 CALM      30.19S HAZE
FRONT ROYAL*   CLOUDY    61  61 100 CALM      30.17F VSB<1/4
LURAY*         FOG       63  63 100 CALM      30.18S VSB 1/4
NEW MARKET*    FAIR      58  58 100 CALM      30.16F
STAUNTON*      MOCLDY    61  60  96 CALM      30.19F FOG
WAYNESBORO*    PTSUNNY   59  59 100 CALM      30.18S

$$

WVZ021-048>050-054>055-070900-
EASTERN WEST VIRGINIA PANHANDLE

CITY           SKY/WX    TMP DP  RH WIND       PRES   REMARKS
MARTINSBURG    MOCLDY    58  54  86 N3        30.19F FOG
PETERSBURG*    FOG       57  54  89 CALM      30.18F VSB 1/4

$$

VAZ036>039-050-070900-
CENTRAL FOOTHILLS

CITY           SKY/WX    TMP DP  RH WIND       PRES   REMARKS
CHARLOTTESVILL CLOUDY    62  61  96 CALM      30.15F FOG
CULPEPER*      FOG       57  57 100 CALM      30.17F VSB 1
ORANGE*        FOG       61  59  94 CALM      30.17F VSB 1/2
GORDONSVILLE*  PTSUNNY   59  59  99 CALM      30.16R FOG
WARRENTON*     FAIR      60  60 100 NE3       30.17S

$$

VAZ055>057-070900-
NORTH AND CENTRAL PIEDMONT

CITY           SKY/WX    TMP DP  RH WIND       PRES   REMARKS
FREDERICKSBRG* CLEAR     64  63  95 N3        30.16S
STAFFORD*      FOG       57  32  38 CALM      30.20F VSB 1/2

$$

NCZ024-NYZ072-PAZ021-071-VAZ022-071-070900-
OTHER REGIONAL OBSERVATIONS

CITY           SKY/WX    TMP DP  RH WIND       PRES   REMARKS
NEW YORK CITY  CLEAR     58  45  62 W3        30.23F
PHILADELPHIA   CLOUDY    58  51  78 NE3       30.22S
PITTSBURGH     CLEAR     61  58  90 CALM      30.14F
ROANOKE        PTCLDY    60  59  96 CALM      30.19F
RICHMOND       CLOUDY    62  57  83 SE6       30.15F
RALEIGH        CLOUDY    60  55  83 CALM      30.14S

$$

ANZ530>537-070900-
MARINE OBSERVATIONS

STATION/POSITION TIME  TEMP    WIND        PRES
                       AIR SEA DIR/SP/G
                 (UTC) (F)     (DEG/KT/KT) (MB)
THOMAS PT LIGHT  0800   60 62   90/  8/  8 1022.6R
BALT KEY BRIDGE  0700   63      70/  7/  8 1022.0F
COVE POINT       0700   59     150/  7/  9 1022.2F
LEWISETTA        0700   62 67              1021.3F
SOLOMONS ISLAND  0700      63                N/A
PINEY POINT      0700          150/ 11/ 12   N/A

$$




USA.gov is the U.S. government's official web portal to all federal, state and local government web resources and services.